This is the latest recevied weather packets stored in our database for station/object N5SRF. If no packets are shown the sender has not sent any weather packets the latest 10 day(s).
| Time | Temp. | Humidity | Pressure | Rain* | Wind** | Luminosity | Snow |
|---|---|---|---|---|---|---|---|
| 1777646107 | 15° C | 99% | 1017.9 hPa | 8.89 mm | - | 25 W/m² | - |
| 1777645804 | 14.44° C | 99% | 1018 hPa | 11.94 mm | - | 35 W/m² | - |
| 1777645502 | 14.44° C | 99% | 1017.8 hPa | 10.67 mm | - | 23 W/m² | - |
| 1777645196 | 14.44° C | 99% | 1017.9 hPa | 10.67 mm | - | 17 W/m² | - |
| 1777644893 | 15° C | 99% | 1017.8 hPa | 7.87 mm | - | 11 W/m² | - |
| 1777644591 | 15° C | 99% | 1017.5 hPa | 8.89 mm | - | 11 W/m² | - |
| 1777644286 | 15° C | 99% | 1017.7 hPa | 10.67 mm | - | 10 W/m² | - |
| 1777643983 | 15° C | 99% | 1017.7 hPa | 10.67 mm | - | 16 W/m² | - |
| 1777643680 | 15° C | 99% | 1017.6 hPa | 11.94 mm | - | 17 W/m² | - |
| 1777643378 | 15° C | 99% | 1017.7 hPa | 8.89 mm | - | 15 W/m² | - |
| 1777643074 | 15° C | 99% | 1017.8 hPa | 6.1 mm | - | 15 W/m² | - |
| 1777642771 | 15° C | 99% | 1017.8 hPa | 7.87 mm | - | 12 W/m² | - |
| 1777642468 | 15° C | 99% | 1018.1 hPa | 10.67 mm | - | 12 W/m² | - |
| 1777642164 | 15° C | 99% | 1018.1 hPa | 11.94 mm | - | 10 W/m² | - |
| 1777641861 | 15° C | 99% | 1018.5 hPa | 11.94 mm | - | 8 W/m² | - |
| 1777641561 | 15° C | 99% | 1018.4 hPa | 11.94 mm | - | 6 W/m² | - |
| 1777641261 | 15° C | 99% | 1018.1 hPa | 10.67 mm | - | 6 W/m² | - |
| 1777640958 | 15° C | 99% | 1018 hPa | 9.65 mm | - | 9 W/m² | - |
| 1777640655 | 15° C | 99% | 1017.7 hPa | 8.89 mm | - | 7 W/m² | - |
| 1777640351 | 15° C | 99% | 1017.5 hPa | 10.16 mm | - | 7 W/m² | - |
| 1777640048 | 15° C | 99% | 1017.1 hPa | 12.7 mm | - | 10 W/m² | - |
| 1777639744 | 15° C | 99% | 1017.4 hPa | 12.7 mm | - | 6 W/m² | - |
| 1777639443 | 15° C | 99% | 1018.1 hPa | 16.76 mm | - | 2 W/m² | - |
| 1777639137 | 15° C | 99% | 1018 hPa | 16.76 mm | - | 4 W/m² | - |
| 1777638835 | 15° C | 99% | 1017.9 hPa | 16.26 mm | - | 5 W/m² | - |
* Rain latest hour (hover to see other rain measurements)
** Current wind speed in m/s (hover to see current wind gust speed)